| time (UTC) | temp F | wind direction | speed knots | gust knots | rain 1hr in | rain 24hr in | rain mn in | humidity % | barometer mb |
| 20260507001511 | 57 | 280 | 4.3 | 10.4 | 0.00 | 0.00 | 0.00 | 75 | 1020.2 |
| 20260507001003 | 57 | 259 | 4.3 | 10.4 | 0.00 | 0.00 | 0.00 | 75 | 1020.2 |
| 20260507000509 | 57 | 240 | 4.3 | 9.6 | 0.00 | 0.00 | 0.00 | 75 | 1020.2 |
| 20260507000022 | 57 | 271 | 4.3 | 9.6 | 0.00 | 0.00 | 0.00 | 75 | 1020.2 |
| 20260506235504 | 57 | 229 | 5.2 | 9.6 | 0.00 | 0.00 | 0.00 | 75 | 1020.3 |
| 20260506235006 | 57 | 253 | 3.5 | 10.4 | 0.00 | 0.00 | 0.00 | 75 | 1020.3 |
| 20260506234509 | 57 | 274 | 6.1 | 10.4 | 0.00 | 0.00 | 0.00 | 74 | 1020.2 |
| 20260506234005 | 57 | 246 | 6.1 | 10.4 | 0.00 | 0.00 | 0.00 | 73 | 1020.3 |
| 20260506233505 | 57 | 240 | 3.5 | 9.6 | 0.00 | 0.00 | 0.00 | 74 | 1020.3 |
| 20260506233016 | 58 | 234 | 5.2 | 9.6 | 0.00 | 0.00 | 0.00 | 74 | 1020.3 |
| 20260506232502 | 58 | 273 | 2.6 | 8.7 | 0.00 | 0.00 | 0.00 | 74 | 1020.2 |
| 20260506232002 | 58 | 232 | 5.2 | 8.7 | 0.00 | 0.00 | 0.00 | 74 | 1020.2 |
| 20260506231514 | 58 | 263 | 2.6 | 7.8 | 0.00 | 0.00 | 0.00 | 74 | 1020.3 |
| 20260506231003 | 58 | 228 | 2.6 | 7.8 | 0.00 | 0.00 | 0.00 | 75 | 1020.3 |
| 20260506230504 | 58 | 233 | 3.5 | 7.8 | 0.00 | 0.00 | 0.00 | 74 | 1020.3 |
| 20260506230016 | 58 | 248 | 3.5 | 9.6 | 0.00 | 0.00 | 0.00 | 74 | 1020.3 |
| 20260506225507 | 58 | 218 | 3.5 | 9.6 | 0.00 | 0.00 | 0.00 | 73 | 1020.3 |
| 20260506225003 | 58 | 240 | 3.5 | 13.0 | 0.00 | 0.00 | 0.00 | 74 | 1020.3 |
| 20260506224512 | 58 | 255 | 7.8 | 13.0 | 0.00 | 0.00 | 0.00 | 72 | 1020.3 |
| 20260506224004 | 59 | 219 | 6.1 | 11.3 | 0.00 | 0.00 | 0.00 | 72 | 1020.2 |
| 20260506223504 | 60 | 213 | 3.5 | 9.6 | 0.00 | 0.00 | 0.00 | 72 | 1020.3 |
| 20260506223015 | 60 | 173 | 3.5 | 9.6 | 0.00 | 0.00 | 0.00 | 71 | 1020.3 |
| 20260506222505 | 59 | 232 | 2.6 | 8.7 | 0.00 | 0.00 | 0.00 | 72 | 1020.3 |
| 20260506222006 | 59 | 180 | 3.5 | 8.7 | 0.00 | 0.00 | 0.00 | 73 | 1020.3 |
| 20260506221514 | 59 | 246 | 1.7 | 8.7 | 0.00 | 0.00 | 0.00 | 73 | 1020.4 |
| 20260506221002 | 59 | 223 | 2.6 | 9.6 | 0.00 | 0.00 | 0.00 | 73 | 1020.5 |
| 20260506220502 | 59 | 167 | 4.3 | 9.6 | 0.00 | 0.00 | 0.00 | 74 | 1020.5 |
| 20260506220012 | 59 | 179 | 4.3 | 11.3 | 0.00 | 0.00 | 0.00 | 74 | 1020.5 |
| 20260506215503 | 59 | 221 | 5.2 | 11.3 | 0.00 | 0.00 | 0.00 | 74 | 1020.6 |
| 20260506215006 | 59 | 234 | 3.5 | 9.6 | 0.00 | 0.00 | 0.00 | 74 | 1020.6 |
| 20260506214515 | 59 | 230 | 5.2 | 9.6 | 0.00 | 0.00 | 0.00 | 74 | 1020.5 |
| 20260506214004 | 59 | 211 | 4.3 | 9.6 | 0.00 | 0.00 | 0.00 | 75 | 1020.5 |
| 20260506213503 | 59 | 210 | 4.3 | 10.4 | 0.00 | 0.00 | 0.00 | 74 | 1020.3 |
| 20260506213016 | 59 | 225 | 4.3 | 10.4 | 0.00 | 0.00 | 0.00 | 73 | 1020.4 |
| 20260506212506 | 59 | 159 | 4.3 | 10.4 | 0.00 | 0.00 | 0.00 | 74 | 1020.4 |
| 20260506212004 | 59 | 246 | 4.3 | 11.3 | 0.00 | 0.00 | 0.00 | 73 | 1020.4 |
| 20260506211515 | 60 | 261 | 5.2 | 11.3 | 0.00 | 0.00 | 0.00 | 73 | 1020.5 |
| 20260506211003 | 60 | 269 | 6.1 | 10.4 | 0.00 | 0.00 | 0.00 | 73 | 1020.4 |
| 20260506210503 | 60 | 205 | 5.2 | 11.3 | 0.00 | 0.00 | 0.00 | 73 | 1020.5 |
| 20260506210016 | 59 | 202 | 3.5 | 12.2 | 0.00 | 0.00 | 0.00 | 74 | 1020.4 |
| 20260506205502 | 59 | 184 | 4.3 | 12.2 | 0.00 | 0.00 | 0.00 | 75 | 1020.4 |
| 20260506205002 | 59 | 217 | 4.3 | 14.8 | 0.00 | 0.00 | 0.00 | 76 | 1020.4 |
| 20260506204517 | 58 | 209 | 4.3 | 14.8 | 0.00 | 0.00 | 0.00 | 77 | 1020.4 |
| 20260506204007 | 58 | 179 | 3.5 | 7.0 | 0.00 | 0.00 | 0.00 | 80 | 1020.4 |
| 20260506203507 | 57 | 211 | 1.7 | 6.1 | 0.00 | 0.00 | 0.00 | 82 | 1020.3 |
| 20260506203019 | 57 | 262 | 2.6 | 8.7 | 0.00 | 0.00 | 0.00 | 81 | 1020.4 |
| 20260506202506 | 57 | 275 | 2.6 | 10.4 | 0.00 | 0.00 | 0.00 | 81 | 1020.3 |
| 20260506202008 | 57 | 258 | 4.3 | 10.4 | 0.00 | 0.00 | 0.00 | 80 | 1020.3 |
| 20260506201518 | 57 | 261 | 3.5 | 7.8 | 0.00 | 0.00 | 0.00 | 81 | 1020.3 |
| 20260506201004 | 57 | 237 | 1.7 | 7.0 | 0.00 | 0.00 | 0.00 | 82 | 1020.4 |
| 20260506200503 | 57 | 172 | 1.7 | 6.1 | 0.00 | 0.00 | 0.00 | 82 | 1020.4 |
| 20260506200019 | 57 | 246 | 1.7 | 8.7 | 0.00 | 0.00 | 0.00 | 82 | 1020.4 |
| 20260506195506 | 57 | 267 | 1.7 | 8.7 | 0.00 | 0.00 | 0.00 | 81 | 1020.4 |
| 20260506195003 | 57 | 263 | 2.6 | 8.7 | 0.00 | 0.00 | 0.00 | 82 | 1020.4 |
| 20260506194518 | 57 | 224 | 2.6 | 8.7 | 0.00 | 0.00 | 0.00 | 81 | 1020.3 |
| 20260506194009 | 57 | 172 | 2.6 | 7.8 | 0.00 | 0.00 | 0.00 | 82 | 1020.3 |
| 20260506193504 | 57 | 227 | 1.7 | 7.0 | 0.00 | 0.00 | 0.00 | 82 | 1020.2 |
| 20260506193017 | 57 | 209 | 3.5 | 7.0 | 0.00 | 0.00 | 0.00 | 82 | 1020.2 |
| 20260506192506 | 57 | 177 | 2.6 | 7.0 | 0.00 | 0.00 | 0.00 | 83 | 1020.2 |
| 20260506192008 | 57 | 157 | 1.7 | 9.6 | 0.00 | 0.00 | 0.00 | 82 | 1020.2 |
| 20260506191519 | 57 | 187 | 2.6 | 9.6 | 0.00 | 0.00 | 0.00 | 82 | 1020.2 |
| 20260506191006 | 57 | 178 | 2.6 | 7.8 | 0.00 | 0.00 | 0.00 | 82 | 1020.1 |
| 20260506190507 | 57 | 259 | 0.0 | 7.8 | 0.00 | 0.00 | 0.00 | 83 | 1020.1 |
| 20260506190020 | 57 | 248 | 2.6 | 7.8 | 0.00 | 0.00 | 0.00 | 84 | 1020.1 |
| 20260506185508 | 56 | 197 | 1.7 | 8.7 | 0.00 | 0.00 | 0.00 | 83 | 1020.1 |
| 20260506185007 | 56 | 244 | 3.5 | 8.7 | 0.00 | 0.00 | 0.00 | 83 | 1020.0 |
| 20260506184520 | 56 | 204 | 2.6 | 7.0 | 0.00 | 0.00 | 0.00 | 84 | 1020.0 |
| 20260506184007 | 57 | 232 | 2.6 | 6.1 | 0.00 | 0.00 | 0.00 | 84 | 1020.1 |
| 20260506183507 | 57 | 158 | 1.7 | 6.1 | 0.00 | 0.00 | 0.00 | 85 | 1020.0 |
| 20260506183024 | 56 | 248 | 0.9 | 5.2 | 0.00 | 0.00 | 0.00 | 86 | 1020.0 |
| 20260506182502 | 56 | 222 | 1.7 | 7.0 | 0.00 | 0.00 | 0.00 | 86 | 1020.0 |
| 20260506182010 | 56 | 167 | 2.6 | 7.0 | 0.00 | 0.00 | 0.00 | 85 | 1019.9 |
| 20260506181529 | 56 | 161 | 1.7 | 9.6 | 0.00 | 0.00 | 0.00 | 85 | 1019.9 |
| 20260506181012 | 56 | 192 | 2.6 | 9.6 | 0.00 | 0.00 | 0.00 | 85 | 1019.9 |
| 20260506180515 | 56 | 250 | 3.5 | 7.8 | 0.00 | 0.00 | 0.00 | 86 | 1020.0 |
| 20260506180032 | 56 | 188 | 2.6 | 6.1 | 0.00 | 0.00 | 0.00 | 87 | 1019.9 |
| 20260506175511 | 56 | 211 | 0.9 | 6.1 | 0.00 | 0.00 | 0.00 | 87 | 1019.8 |
| 20260506175008 | 56 | 256 | 2.6 | 5.2 | 0.00 | 0.00 | 0.00 | 88 | 1019.9 |
| 20260506174519 | 55 | 210 | 0.0 | 5.2 | 0.00 | 0.00 | 0.00 | 88 | 1019.9 |
| 20260506174009 | 55 | 251 | 0.9 | 5.2 | 0.00 | 0.00 | 0.00 | 88 | 1019.7 |
| 20260506173507 | 55 | 267 | 2.6 | 5.2 | 0.00 | 0.00 | 0.00 | 88 | 1019.6 |
| 20260506173022 | 55 | 175 | 0.0 | 5.2 | 0.00 | 0.00 | 0.00 | 88 | 1019.5 |
| 20260506172506 | 55 | 227 | 1.7 | 5.2 | 0.00 | 0.00 | 0.00 | 88 | 1019.6 |
| 20260506172008 | 55 | 240 | 1.7 | 5.2 | 0.00 | 0.00 | 0.00 | 88 | 1019.7 |
| 20260506171534 | 55 | 234 | 1.7 | 7.0 | 0.00 | 0.00 | 0.00 | 88 | 1019.8 |
| 20260506171005 | 55 | 247 | 1.7 | 7.0 | 0.00 | 0.00 | 0.00 | 87 | 1019.8 |
| 20260506170508 | 55 | 230 | 2.6 | 7.0 | 0.00 | 0.00 | 0.00 | 88 | 1019.8 |
| 20260506170020 | 55 | 257 | 1.7 | 7.8 | 0.00 | 0.00 | 0.00 | 87 | 1019.8 |
| 20260506165509 | 55 | 238 | 1.7 | 7.8 | 0.00 | 0.00 | 0.00 | 87 | 1019.7 |
| 20260506165008 | 55 | 116 | 1.7 | 6.1 | 0.00 | 0.00 | 0.00 | 87 | 1019.5 |
| 20260506164521 | 55 | 99 | 1.7 | 6.1 | 0.00 | 0.00 | 0.00 | 87 | 1019.7 |
| 20260506164007 | 55 | 192 | 1.7 | 7.0 | 0.00 | 0.00 | 0.00 | 87 | 1019.9 |
| 20260506163507 | 55 | 142 | 4.3 | 7.0 | 0.00 | 0.00 | 0.00 | 87 | 1019.8 |
| 20260506163027 | 55 | 156 | 1.7 | 4.3 | 0.00 | 0.00 | 0.00 | 88 | 1019.9 |
| 20260506162503 | 55 | 204 | 1.7 | 5.2 | 0.00 | 0.00 | 0.00 | 88 | 1019.8 |
| 20260506162007 | 55 | 164 | 1.7 | 7.0 | 0.00 | 0.00 | 0.00 | 89 | 1019.7 |
| 20260506161520 | 54 | 108 | 2.6 | 7.0 | 0.00 | 0.00 | 0.00 | 89 | 1019.6 |
| 20260506161003 | 54 | 164 | 1.7 | 7.0 | 0.00 | 0.00 | 0.00 | 89 | 1019.6 |
| 20260506160505 | 54 | 175 | 0.9 | 4.3 | 0.00 | 0.00 | 0.00 | 90 | 1019.6 |
| 20260506160018 | 54 | 225 | 0.0 | 2.6 | 0.00 | 0.00 | 0.00 | 90 | 1019.6 |
| 20260506155511 | 54 | 178 | 0.9 | 3.5 | 0.00 | 0.00 | 0.00 | 90 | 1019.5 |
| 20260506155007 | 54 | 71 | 0.0 | 3.5 | 0.00 | 0.00 | 0.00 | 90 | 1019.3 |
| 20260506154524 | 54 | 165 | 0.9 | 3.5 | 0.00 | 0.00 | 0.00 | 90 | 1019.2 |
| 20260506154002 | 54 | 156 | 1.7 | 7.0 | 0.00 | 0.00 | 0.00 | 90 | 1019.3 |
| 20260506153502 | 54 | 173 | 2.6 | 7.0 | 0.00 | 0.00 | 0.00 | 90 | 1019.2 |
| 20260506153009 | 54 | 119 | 0.9 | 6.1 | 0.00 | 0.00 | 0.00 | 90 | 1019.2 |
| 20260506152502 | 54 | 120 | 1.7 | 5.2 | 0.00 | 0.00 | 0.00 | 90 | 1019.3 |
| 20260506152006 | 54 | 125 | 0.9 | 5.2 | 0.00 | 0.00 | 0.00 | 90 | 1019.3 |
| 20260506151511 | 54 | 142 | 1.7 | 3.5 | 0.00 | 0.00 | 0.00 | 90 | 1019.4 |
| 20260506151003 | 54 | 117 | 1.7 | 3.5 | 0.00 | 0.00 | 0.00 | 90 | 1019.4 |
| 20260506150503 | 54 | 117 | 0.9 | 2.6 | 0.00 | 0.00 | 0.00 | 90 | 1019.5 |
| 20260506150022 | 54 | 142 | 0.0 | 2.6 | 0.00 | 0.00 | 0.00 | 91 | 1019.6 |
| 20260506145506 | 54 | 142 | 0.0 | 3.5 | 0.00 | 0.00 | 0.00 | 91 | 1019.5 |
| 20260506145004 | 54 | 123 | 0.9 | 3.5 | 0.00 | 0.00 | 0.00 | 91 | 1019.3 |
| 20260506144520 | 53 | 161 | 0.0 | 3.5 | 0.00 | 0.00 | 0.00 | 91 | 1019.1 |
| 20260506144006 | 53 | 161 | 0.9 | 3.5 | 0.00 | 0.00 | 0.00 | 91 | 1019.0 |
| 20260506143507 | 53 | 161 | 0.0 | 3.5 | 0.00 | 0.00 | 0.00 | 91 | 1019.0 |
| 20260506143009 | 53 | 161 | 0.9 | 3.5 | 0.00 | 0.00 | 0.00 | 92 | 1019.0 |
| 20260506142503 | 53 | 164 | 0.0 | 3.5 | 0.00 | 0.00 | 0.00 | 92 | 1019.2 |
| 20260506142001 | 53 | 164 | 0.0 | 3.5 | 0.00 | 0.00 | 0.00 | 92 | 1019.0 |
| 20260506141512 | 53 | 164 | 0.9 | 2.6 | 0.00 | 0.00 | 0.00 | 92 | 1019.0 |
| 20260506141003 | 53 | 150 | 0.0 | 2.6 | 0.00 | 0.00 | 0.00 | 92 | 1019.1 |
| 20260506140503 | 53 | 150 | 0.9 | 2.6 | 0.00 | 0.00 | 0.00 | 92 | 1018.9 |
| 20260506140016 | 53 | 77 | 0.0 | 1.7 | 0.00 | 0.00 | 0.00 | 92 | 1018.9 |
| 20260506135503 | 53 | 77 | 0.0 | 2.6 | 0.00 | 0.00 | 0.00 | 92 | 1018.9 |
| 20260506135011 | 53 | 77 | 0.9 | 2.6 | 0.00 | 0.00 | 0.00 | 92 | 1018.9 |
| 20260506134541 | 53 | 77 | 0.9 | 2.6 | 0.00 | 0.00 | 0.00 | 92 | 1018.9 |
| 20260506134007 | 52 | 77 | 0.0 | 1.7 | 0.00 | 0.00 | 0.00 | 92 | 1019.0 |
| 20260506133508 | 52 | 77 | 0.0 | 1.7 | 0.00 | 0.00 | 0.00 | 92 | 1018.9 |
| 20260506133023 | 52 | 77 | 0.9 | 1.7 | 0.00 | 0.00 | 0.00 | 92 | 1019.0 |
| 20260506132508 | 52 | 320 | 0.9 | 1.7 | 0.00 | 0.00 | 0.00 | 92 | 1019.0 |
| 20260506132008 | 52 | 320 | 0.0 | 0.9 | 0.00 | 0.00 | 0.00 | 92 | 1018.8 |
| 20260506131507 | 52 | 320 | 0.0 | 0.9 | 0.00 | 0.00 | 0.00 | 92 | 1018.9 |
| 20260506131003 | 52 | 320 | 0.0 | 0.0 | 0.00 | 0.00 | 0.00 | 93 | 1018.9 |
| 20260506130502 | 52 | 320 | 0.0 | 0.0 | 0.00 | 0.00 | 0.00 | 92 | 1018.9 |
| 20260506130012 | 52 | 320 | 0.0 | 0.9 | 0.00 | 0.00 | 0.00 | 93 | 1018.7 |
| 20260506125503 | 52 | 320 | 0.0 | 0.9 | 0.00 | 0.00 | 0.00 | 92 | 1018.5 |
| 20260506125003 | 52 | 320 | 0.0 | 0.9 | 0.00 | 0.00 | 0.00 | 92 | 1018.4 |
| 20260506124518 | 52 | 320 | 0.0 | 1.7 | 0.00 | 0.00 | 0.00 | 92 | 1018.5 |
| 20260506124003 | 52 | 320 | 0.0 | 1.7 | 0.00 | 0.00 | 0.00 | 92 | 1018.4 |
| 20260506123506 | 52 | 320 | 0.0 | 1.7 | 0.00 | 0.00 | 0.00 | 92 | 1018.4 |
| 20260506123020 | 52 | 320 | 0.0 | 1.7 | 0.00 | 0.00 | 0.00 | 92 | 1018.4 |
| 20260506122508 | 52 | 320 | 0.0 | 1.7 | 0.00 | 0.00 | 0.00 | 92 | 1018.5 |
| 20260506122010 | 52 | 272 | 0.0 | 1.7 | 0.00 | 0.00 | 0.00 | 92 | 1018.5 |
| 20260506121525 | 52 | 272 | 0.0 | 1.7 | 0.00 | 0.00 | 0.00 | 92 | 1018.5 |
| 20260506121006 | 51 | 272 | 0.0 | 1.7 | 0.00 | 0.00 | 0.00 | 92 | 1018.6 |
| 20260506120506 | 51 | 272 | 0.0 | 0.0 | 0.00 | 0.00 | 0.00 | 92 | 1018.5 |
| 20260506120011 | 51 | 272 | 0.0 | 0.0 | 0.00 | 0.00 | 0.00 | 92 | 1018.5 |
| 20260506115503 | 51 | 272 | 0.0 | 0.0 | 0.00 | 0.00 | 0.00 | 92 | 1018.4 |
| 20260506115004 | 51 | 272 | 0.0 | 0.0 | 0.00 | 0.00 | 0.00 | 92 | 1018.4 |
| 20260506114523 | 51 | 272 | 0.0 | 0.0 | 0.00 | 0.00 | 0.00 | 92 | 1018.4 |
| 20260506114003 | 51 | 272 | 0.0 | 1.7 | 0.00 | 0.00 | 0.00 | 92 | 1018.4 |
| 20260506113503 | 51 | 272 | 0.0 | 1.7 | 0.00 | 0.00 | 0.00 | 92 | 1018.4 |
| 20260506113019 | 51 | 272 | 0.0 | 1.7 | 0.00 | 0.00 | 0.00 | 92 | 1018.3 |
| 20260506112506 | 51 | 272 | 0.0 | 1.7 | 0.00 | 0.00 | 0.00 | 92 | 1018.3 |
| 20260506112006 | 51 | 36 | 0.0 | 1.7 | 0.00 | 0.00 | 0.00 | 92 | 1018.2 |
| 20260506111522 | 51 | 36 | 0.0 | 0.0 | 0.00 | 0.00 | 0.00 | 92 | 1018.0 |
| 20260506111009 | 51 | 36 | 0.0 | 0.0 | 0.00 | 0.00 | 0.00 | 92 | 1017.9 |
| 20260506110510 | 51 | 36 | 0.0 | 0.0 | 0.00 | 0.00 | 0.00 | 92 | 1017.8 |
| 20260506110029 | 51 | 36 | 0.0 | 0.0 | 0.00 | 0.00 | 0.00 | 92 | 1017.8 |
| 20260506105509 | 51 | 36 | 0.0 | 0.9 | 0.00 | 0.00 | 0.00 | 92 | 1017.7 |
| 20260506105008 | 51 | 36 | 0.0 | 0.9 | 0.00 | 0.00 | 0.00 | 92 | 1017.6 |
| 20260506104511 | 51 | 36 | 0.0 | 0.9 | 0.00 | 0.00 | 0.00 | 92 | 1017.7 |
| 20260506104003 | 51 | 36 | 0.0 | 0.9 | 0.00 | 0.00 | 0.00 | 92 | 1017.5 |
| 20260506103503 | 51 | 36 | 0.0 | 0.9 | 0.00 | 0.00 | 0.00 | 92 | 1017.5 |
| 20260506103023 | 51 | 36 | 0.0 | 0.0 | 0.00 | 0.00 | 0.00 | 92 | 1017.5 |
| 20260506102503 | 51 | 36 | 0.0 | 0.9 | 0.00 | 0.00 | 0.00 | 92 | 1017.5 |
| 20260506102003 | 51 | 36 | 0.0 | 0.9 | 0.00 | 0.00 | 0.00 | 92 | 1017.5 |
| 20260506101522 | 51 | 36 | 0.0 | 0.9 | 0.00 | 0.00 | 0.00 | 92 | 1017.5 |
| 20260506101006 | 51 | 36 | 0.0 | 0.0 | 0.00 | 0.00 | 0.00 | 92 | 1017.4 |
| 20260506100506 | 51 | 36 | 0.0 | 0.0 | 0.00 | 0.00 | 0.00 | 92 | 1017.3 |
| 20260506100032 | 51 | 36 | 0.0 | 0.0 | 0.00 | 0.00 | 0.00 | 92 | 1017.3 |
| 20260506095503 | 51 | 36 | 0.0 | 0.0 | 0.00 | 0.00 | 0.00 | 92 | 1017.3 |
| 20260506095004 | 51 | 36 | 0.0 | 0.0 | 0.00 | 0.00 | 0.00 | 92 | 1017.2 |
| 20260506094514 | 51 | 36 | 0.0 | 0.0 | 0.00 | 0.00 | 0.00 | 91 | 1017.2 |
| 20260506094004 | 51 | 36 | 0.0 | 1.7 | 0.00 | 0.00 | 0.00 | 92 | 1017.2 |
| 20260506093503 | 51 | 36 | 0.0 | 1.7 | 0.00 | 0.00 | 0.00 | 91 | 1017.2 |
| 20260506093012 | 51 | 36 | 0.9 | 1.7 | 0.00 | 0.00 | 0.00 | 91 | 1017.2 |
| 20260506092507 | 51 | 36 | 0.9 | 1.7 | 0.00 | 0.00 | 0.00 | 91 | 1017.1 |
| 20260506092004 | 51 | 36 | 0.0 | 1.7 | 0.00 | 0.00 | 0.00 | 91 | 1017.1 |
| 20260506091520 | 51 | 36 | 0.0 | 1.7 | 0.00 | 0.00 | 0.00 | 91 | 1017.1 |
| 20260506091004 | 51 | 36 | 0.9 | 1.7 | 0.00 | 0.00 | 0.00 | 91 | 1017.2 |
| 20260506090506 | 51 | 36 | 0.9 | 1.7 | 0.00 | 0.00 | 0.00 | 90 | 1017.1 |
| 20260506090023 | 51 | 36 | 0.0 | 1.7 | 0.00 | 0.00 | 0.00 | 90 | 1017.1 |
| 20260506085506 | 51 | 36 | 0.0 | 1.7 | 0.00 | 0.00 | 0.00 | 90 | 1017.0 |
| 20260506085006 | 52 | 36 | 0.9 | 1.7 | 0.00 | 0.00 | 0.00 | 90 | 1016.9 |
| 20260506084528 | 52 | 36 | 0.0 | 0.9 | 0.00 | 0.00 | 0.00 | 90 | 1016.8 |
| 20260506084003 | 52 | 36 | 0.0 | 0.9 | 0.00 | 0.00 | 0.00 | 89 | 1016.7 |
| 20260506083504 | 52 | 37 | 0.0 | 0.0 | 0.00 | 0.00 | 0.00 | 89 | 1016.7 |
| 20260506083012 | 52 | 36 | 0.0 | 0.0 | 0.00 | 0.00 | 0.00 | 89 | 1016.7 |
| 20260506082503 | 52 | 36 | 0.0 | 0.0 | 0.00 | 0.00 | 0.00 | 89 | 1016.7 |
| 20260506082004 | 52 | 36 | 0.0 | 0.0 | 0.00 | 0.00 | 0.00 | 89 | 1016.6 |
| 20260506081521 | 52 | 36 | 0.0 | 1.7 | 0.00 | 0.00 | 0.00 | 89 | 1016.6 |
| 20260506081006 | 53 | 36 | 0.0 | 1.7 | 0.00 | 0.00 | 0.00 | 89 | 1016.6 |
| 20260506080504 | 53 | 36 | 0.0 | 0.9 | 0.00 | 0.00 | 0.00 | 89 | 1016.5 |
| 20260506073510 | 54 | 36 | 0.0 | 0.9 | 0.00 | 0.00 | 0.00 | 88 | 1016.3 |
| 20260506073029 | 54 | 36 | 0.0 | 1.7 | 0.00 | 0.00 | 0.00 | 88 | 1016.3 |
| 20260506072503 | 54 | 36 | 0.0 | 1.7 | 0.00 | 0.00 | 0.00 | 88 | 1016.2 |
| 20260506072006 | 54 | 36 | 0.9 | 1.7 | 0.00 | 0.00 | 0.00 | 88 | 1016.3 |
| 20260506071514 | 54 | 36 | 0.0 | 1.7 | 0.00 | 0.00 | 0.00 | 88 | 1016.3 |
| 20260506071004 | 54 | 36 | 0.0 | 1.7 | 0.00 | 0.00 | 0.00 | 87 | 1016.3 |
| 20260506070504 | 54 | 36 | 0.0 | 1.7 | 0.00 | 0.00 | 0.00 | 87 | 1016.3 |
| 20260506062508 | 55 | 192 | 0.0 | 1.7 | 0.00 | 0.00 | 0.00 | 87 | 1016.3 |
| 20260506062008 | 55 | 192 | 0.0 | 0.9 | 0.00 | 0.00 | 0.00 | 87 | 1016.3 |
| 20260506061534 | 55 | 192 | 0.0 | 0.9 | 0.00 | 0.00 | 0.00 | 87 | 1016.2 |
| 20260506061004 | 55 | 192 | 0.0 | 0.9 | 0.00 | 0.00 | 0.00 | 86 | 1016.1 |
| 20260506060506 | 55 | 192 | 0.0 | 1.7 | 0.00 | 0.00 | 0.00 | 86 | 1016.0 |
| 20260506051009 | 57 | 192 | 0.9 | 1.7 | 0.00 | 0.00 | 0.00 | 84 | 1015.4 |
| 20260506050508 | 57 | 191 | 0.9 | 2.6 | 0.00 | 0.00 | 0.00 | 83 | 1015.3 |
| 20260506045007 | 58 | 192 | 0.0 | 1.7 | 0.00 | 0.00 | 0.00 | 82 | 1015.4 |
| 20260506044520 | 58 | 192 | 0.0 | 0.9 | 0.00 | 0.00 | 0.00 | 82 | 1015.3 |
| 20260506044008 | 58 | 191 | 0.0 | 1.7 | 0.00 | 0.00 | 0.00 | 81 | 1015.3 |
| 20260506043506 | 58 | 191 | 0.9 | 1.7 | 0.00 | 0.00 | 0.00 | 81 | 1015.3 |
| 20260506043021 | 59 | 191 | 0.9 | 1.7 | 0.00 | 0.00 | 0.00 | 81 | 1015.2 |
| 20260506042507 | 59 | 191 | 0.0 | 1.7 | 0.00 | 0.00 | 0.00 | 80 | 1015.1 |
| 20260506042008 | 59 | 192 | 0.9 | 2.6 | 0.00 | 0.00 | 0.00 | 80 | 1015.0 |
| 20260506041525 | 59 | 191 | 0.0 | 2.6 | 0.00 | 0.00 | 0.00 | 80 | 1015.1 |
| 20260506041007 | 59 | 191 | 1.7 | 2.6 | 0.00 | 0.00 | 0.00 | 79 | 1015.0 |
| 20260506040508 | 60 | 192 | 0.9 | 2.6 | 0.00 | 0.00 | 0.00 | 79 | 1015.0 |
| 20260506040029 | 60 | 191 | 0.0 | 2.6 | 0.00 | 0.00 | 0.00 | 79 | 1015.0 |
| 20260506035508 | 60 | 191 | 0.0 | 2.6 | 0.00 | 0.00 | 0.00 | 78 | 1015.0 |
| 20260506035011 | 60 | 191 | 0.9 | 2.6 | 0.00 | 0.00 | 0.00 | 78 | 1015.0 |
| 20260506034510 | 61 | 191 | 0.0 | 2.6 | 0.00 | 0.00 | 0.00 | 78 | 1015.0 |
| 20260506034007 | 61 | 191 | 0.9 | 3.5 | 0.00 | 0.00 | 0.00 | 77 | 1015.0 |
| 20260506033506 | 61 | 191 | 0.9 | 3.5 | 0.00 | 0.00 | 0.00 | 77 | 1015.0 |
| 20260506033016 | 61 | 163 | 0.0 | 3.5 | 0.00 | 0.00 | 0.00 | 76 | 1015.0 |
| 20260506032507 | 62 | 210 | 0.0 | 2.6 | 0.00 | 0.00 | 0.00 | 75 | 1015.0 |
| 20260506032007 | 62 | 210 | 0.0 | 3.5 | 0.00 | 0.00 | 0.00 | 75 | 1014.9 |
| 20260506031528 | 62 | 210 | 1.7 | 3.5 | 0.00 | 0.00 | 0.00 | 74 | 1014.9 |
| 20260506031009 | 62 | 236 | 0.9 | 3.5 | 0.00 | 0.00 | 0.00 | 74 | 1014.8 |
| 20260506030506 | 63 | 221 | 0.9 | 3.5 | 0.00 | 0.00 | 0.00 | 73 | 1014.7 |
| 20260506030027 | 63 | 161 | 0.9 | 3.5 | 0.00 | 0.00 | 0.00 | 73 | 1014.7 |
| 20260506025508 | 64 | 167 | 0.9 | 3.5 | 0.00 | 0.00 | 0.00 | 72 | 1014.6 |
| 20260506025006 | 64 | 182 | 0.9 | 4.3 | 0.00 | 0.00 | 0.00 | 71 | 1014.6 |
| 20260506024537 | 64 | 208 | 1.7 | 4.3 | 0.00 | 0.00 | 0.00 | 71 | 1014.6 |
| 20260506024007 | 65 | 189 | 0.9 | 3.5 | 0.00 | 0.00 | 0.00 | 70 | 1014.6 |
| 20260506023510 | 66 | 221 | 0.9 | 3.5 | 0.00 | 0.00 | 0.00 | 69 | 1014.5 |
| 20260506023016 | 66 | 180 | 0.9 | 3.5 | 0.00 | 0.00 | 0.00 | 68 | 1014.4 |
| 20260506022506 | 66 | 171 | 0.0 | 3.5 | 0.00 | 0.00 | 0.00 | 67 | 1014.4 |
| 20260506022008 | 66 | 171 | 0.0 | 3.5 | 0.00 | 0.00 | 0.00 | 67 | 1014.5 |
| 20260506021518 | 66 | 95 | 0.0 | 5.2 | 0.00 | 0.00 | 0.00 | 67 | 1014.5 |
| 20260506021007 | 66 | 95 | 1.7 | 5.2 | 0.00 | 0.00 | 0.00 | 67 | 1014.5 |
| 20260506020505 | 66 | 97 | 0.9 | 4.3 | 0.00 | 0.00 | 0.00 | 66 | 1014.5 |
| 20260506020024 | 66 | 63 | 1.7 | 4.3 | 0.00 | 0.00 | 0.00 | 66 | 1014.5 |
| 20260506015511 | 66 | 61 | 2.6 | 4.3 | 0.00 | 0.00 | 0.00 | 65 | 1014.4 |
| 20260506015008 | 67 | 114 | 0.9 | 4.3 | 0.00 | 0.00 | 0.00 | 65 | 1014.4 |
| 20260506014527 | 67 | 11 | 1.7 | 4.3 | 0.00 | 0.00 | 0.00 | 64 | 1014.4 |
| 20260506014007 | 67 | 43 | 1.7 | 4.3 | 0.00 | 0.00 | 0.00 | 65 | 1014.5 |
| 20260506013507 | 67 | 130 | 1.7 | 4.3 | 0.00 | 0.00 | 0.00 | 64 | 1014.5 |
| 20260506013032 | 67 | 93 | 0.0 | 4.3 | 0.00 | 0.00 | 0.00 | 65 | 1014.5 |
| 20260506012509 | 67 | 159 | 0.9 | 4.3 | 0.00 | 0.00 | 0.00 | 65 | 1014.5 |
| 20260506012013 | 67 | 161 | 1.7 | 5.2 | 0.00 | 0.00 | 0.00 | 65 | 1014.5 |
| 20260506011537 | 66 | 113 | 0.9 | 5.2 | 0.00 | 0.00 | 0.00 | 67 | 1014.6 |
| 20260506011008 | 66 | 76 | 2.6 | 5.2 | 0.00 | 0.00 | 0.00 | 66 | 1014.6 |
| 20260506010513 | 66 | 135 | 1.7 | 5.2 | 0.00 | 0.00 | 0.00 | 66 | 1014.7 |
| 20260506010022 | 67 | 181 | 0.9 | 5.2 | 0.00 | 0.00 | 0.00 | 65 | 1014.7 |
| 20260506005507 | 67 | 157 | 1.7 | 6.1 | 0.00 | 0.00 | 0.00 | 65 | 1014.8 |
| 20260506005006 | 67 | 148 | 2.6 | 6.1 | 0.00 | 0.00 | 0.00 | 65 | 1014.8 |
| 20260506004523 | 67 | 185 | 0.9 | 6.1 | 0.00 | 0.00 | 0.00 | 64 | 1014.7 |
| 20260506004006 | 68 | 227 | 2.6 | 6.1 | 0.00 | 0.00 | 0.00 | 64 | 1014.8 |
| 20260506003503 | 67 | 100 | 1.7 | 5.2 | 0.00 | 0.00 | 0.00 | 64 | 1014.7 |
| 20260506003010 | 68 | 250 | 1.7 | 6.1 | 0.00 | 0.00 | 0.00 | 63 | 1014.7 |
| 20260506002504 | 67 | 74 | 1.7 | 6.1 | 0.00 | 0.00 | 0.00 | 64 | 1014.7 |
| 20260506002002 | 67 | 105 | 0.9 | 6.1 | 0.00 | 0.00 | 0.00 | 65 | 1014.8 |